FW8701 Weather Reports


time (UTC)temp
F
wind
direction
speed
knots
gust
knots
rain 1hr
in
rain 24hr
in
rain mn
in
humidity
%
barometer
mb
20260505172050 57 202 0.0 1.7 0.00 0.00 0.00 77 1008.1
20260505171545 58 176 0.0 2.6 0.00 0.00 0.00 75 1007.9
20260505171042 58 158 0.9 1.7 0.00 0.00 0.00 76 1008.1
20260505170539 57 222 0.0 0.9 0.00 0.00 0.00 77 1008.0
20260505170036 57 121 0.9 2.6 0.00 0.00 0.00 77 1007.8
20260505165531 57 146 0.0 0.9 0.00 0.00 0.00 79 1007.8
20260505165026 57 10 2.6 4.3 0.00 0.00 0.00 76 1007.8
20260505164523 57 195 0.0 1.7 0.00 0.00 0.00 78 1007.9
20260505164021 57 186 0.0 0.9 0.00 0.00 0.00 79 1007.8
20260505163519 57 164 0.9 2.6 0.00 0.00 0.00 79 1007.8
20260505163016 56 184 0.0 1.7 0.00 0.00 0.00 79 1007.7
20260505162509 56 133 0.0 1.7 0.00 0.00 0.00 80 1007.8
20260505162006 55 200 0.0 0.9 0.00 0.00 0.00 84 1007.9
20260505161502 56 215 0.9 1.7 0.00 0.00 0.00 81 1007.9
20260505161000 55 241 0.0 0.9 0.00 0.00 0.00 81 1007.7
20260505160458 55 198 0.0 0.0 0.00 0.00 0.00 84 1007.8
20260505152934 52 200 0.0 0.0 0.00 0.00 0.00 92 1007.8
20260505152426 52 204 0.0 0.0 0.00 0.00 0.00 92 1007.7
20260505151925 51 204 0.0 0.0 0.00 0.00 0.00 93 1007.6
20260505151422 51 200 0.0 0.0 0.00 0.00 0.00 92 1007.7
20260505150919 51 208 0.0 0.0 0.00 0.00 0.00 92 1007.3
20260505150416 51 205 0.0 0.0 0.00 0.00 0.00 92 1007.3
20260505140340 50 204 0.0 0.0 0.00 0.00 0.00 95 1007.1
20260505130303 49 195 0.0 0.0 0.00 0.00 0.00 96 1006.7
20260505124754 49 185 0.0 0.0 0.00 0.00 0.00 96 1006.8
20260505124251 50 185 0.0 0.0 0.00 0.00 0.00 96 1006.7
20260505123746 49 185 0.0 0.0 0.00 0.00 0.00 96 1006.6
20260505123243 49 184 0.0 0.0 0.00 0.00 0.00 96 1006.9
20260505122740 49 191 0.0 0.0 0.00 0.00 0.00 96 1006.7
20260505122237 49 191 0.0 0.0 0.00 0.00 0.00 96 1007.0
20260505121734 50 191 0.0 0.0 0.00 0.00 0.00 96 1006.7
20260505121230 50 191 0.0 0.0 0.00 0.00 0.00 96 1006.9
20260505120726 50 191 0.0 0.0 0.00 0.00 0.00 96 1006.9
20260505120223 50 191 0.0 0.0 0.00 0.00 0.00 96 1006.9
20260505115721 50 191 0.0 0.0 0.00 0.00 0.00 96 1006.9
20260505115219 50 196 0.0 0.0 0.00 0.00 0.00 96 1007.1
20260505114716 50 198 0.0 0.0 0.00 0.00 0.00 96 1006.8
20260505114212 50 198 0.0 0.0 0.00 0.00 0.00 96 1007.0
20260505113709 50 198 0.0 0.0 0.00 0.00 0.00 96 1007.0
20260505113206 50 198 0.0 0.0 0.00 0.00 0.00 96 1007.0
20260505112702 50 198 0.0 0.0 0.00 0.00 0.00 96 1006.9
20260505112200 50 198 0.0 0.0 0.00 0.00 0.00 96 1006.9
20260505111659 50 203 0.0 0.0 0.00 0.00 0.00 96 1006.8
20260505111155 50 209 0.0 0.0 0.00 0.00 0.00 96 1006.7
20260505110652 50 189 0.0 0.0 0.00 0.00 0.00 96 1006.8
20260505110149 50 189 0.0 0.0 0.00 0.00 0.00 96 1007.0
20260505102125 50 191 0.0 0.0 0.00 0.00 0.00 96 1006.8
20260505101624 50 191 0.0 0.0 0.00 0.00 0.00 95 1006.9
20260505101119 50 188 0.0 0.0 0.00 0.00 0.00 95 1006.9
20260505100616 50 193 0.0 0.0 0.00 0.00 0.00 95 1006.8
20260505100113 50 185 0.0 0.0 0.00 0.00 0.00 95 1007.1
20260505095609 50 186 0.0 0.0 0.00 0.00 0.00 95 1007.0
20260505095106 50 186 0.0 0.0 0.00 0.00 0.00 94 1007.0
20260505094602 50 186 0.0 0.0 0.00 0.00 0.00 94 1007.0
20260505094058 50 186 0.0 0.0 0.00 0.00 0.00 95 1007.2
20260505093554 50 186 0.0 0.0 0.00 0.00 0.00 95 1006.9
20260505093052 50 186 0.0 0.0 0.00 0.00 0.00 95 1007.1
20260505092549 50 186 0.0 0.0 0.00 0.00 0.00 95 1007.0
20260505092048 50 186 0.0 0.0 0.00 0.00 0.00 95 1007.2
20260505091544 50 186 0.0 0.0 0.00 0.00 0.00 95 1007.3
20260505091043 50 185 0.0 0.0 0.00 0.00 0.00 95 1007.4
20260505090540 50 195 0.0 0.0 0.00 0.00 0.00 95 1007.4
20260505090038 50 195 0.0 0.0 0.00 0.00 0.00 95 1007.3
20260505085536 50 195 0.0 0.0 0.00 0.00 0.00 95 1007.4
20260505085034 50 195 0.0 0.0 0.00 0.00 0.00 95 1007.6
20260505084531 50 195 0.0 0.0 0.00 0.00 0.00 95 1007.6
20260505084029 50 195 0.0 0.0 0.00 0.00 0.00 95 1007.4
20260505083526 50 202 0.0 0.0 0.00 0.00 0.00 95 1007.5
20260505083023 50 202 0.0 0.0 0.00 0.00 0.00 95 1007.4
20260505082518 50 204 0.0 0.0 0.00 0.00 0.00 95 1007.5
20260505082015 50 202 0.0 0.0 0.00 0.00 0.00 95 1007.5
20260505081512 50 202 0.0 0.0 0.00 0.00 0.00 95 1007.7
20260505081009 50 203 0.0 0.9 0.00 0.00 0.00 95 1007.7
20260505080505 50 199 0.0 0.0 0.00 0.00 0.00 96 1007.7
20260505080001 50 199 0.0 0.0 0.00 0.00 0.00 96 1007.7
20260505075458 50 193 0.0 0.0 0.00 0.00 0.00 96 1007.8
20260505074955 50 193 0.0 0.0 0.00 0.00 0.00 96 1007.7
20260505074452 49 193 0.0 0.0 0.00 0.00 0.00 95 1007.5
20260505073949 49 193 0.0 0.0 0.00 0.00 0.00 95 1007.5
20260505073447 50 193 0.0 0.0 0.00 0.00 0.00 95 1007.7
20260505072944 50 193 0.0 0.0 0.00 0.00 0.00 95 1007.4
20260505072440 50 193 0.0 0.0 0.00 0.00 0.00 95 1007.5
20260505071936 50 193 0.0 0.0 0.00 0.00 0.00 95 1007.4
20260505071432 50 193 0.0 0.0 0.00 0.00 0.00 94 1007.2
20260505070931 50 193 0.0 0.0 0.00 0.00 0.00 94 1007.4
20260505070427 50 193 0.0 0.0 0.00 0.00 0.00 94 1007.4
20260505065922 50 193 0.0 0.0 0.00 0.00 0.00 94 1007.4
20260505065419 50 193 0.0 0.0 0.00 0.00 0.00 94 1007.4
20260505064916 50 192 0.0 0.0 0.00 0.00 0.00 93 1007.3
20260505064413 50 192 0.0 0.0 0.00 0.00 0.00 93 1007.3
20260505063912 50 195 0.0 0.0 0.00 0.00 0.00 93 1007.2
20260505063407 50 205 0.0 0.0 0.00 0.00 0.00 93 1007.3
20260505062904 50 205 0.0 0.0 0.00 0.00 0.00 92 1007.1
20260505062401 51 205 0.0 0.0 0.00 0.00 0.00 92 1007.4
20260505061858 51 205 0.0 0.0 0.00 0.00 0.00 91 1007.2
20260505061356 51 205 0.0 0.0 0.00 0.00 0.00 91 1007.0
20260505060854 51 206 0.0 0.0 0.00 0.00 0.00 90 1007.1
20260505060350 52 205 0.0 0.0 0.00 0.00 0.00 90 1007.4
20260505055846 52 188 0.0 0.0 0.00 0.00 0.00 89 1007.4
20260505055342 52 188 0.0 0.0 0.00 0.00 0.00 89 1007.3
20260505054840 52 195 0.0 0.0 0.00 0.00 0.00 88 1007.2
20260505054337 53 196 0.0 0.0 0.00 0.00 0.00 88 1007.4
20260505053835 53 149 0.0 0.9 0.00 0.00 0.00 87 1007.5
20260505053332 53 198 0.0 0.0 0.00 0.00 0.00 87 1007.4
20260505052828 53 199 0.0 0.0 0.00 0.00 0.00 86 1007.8
20260505052325 53 198 0.0 0.0 0.00 0.00 0.00 86 1007.8
20260505051823 53 213 0.0 0.0 0.00 0.00 0.00 85 1007.7
20260505051320 53 218 0.0 0.9 0.00 0.00 0.00 85 1007.6
20260505050818 53 208 0.0 0.0 0.00 0.00 0.00 85 1007.7
20260505050316 53 208 2.6 4.3 0.00 0.00 0.00 85 1007.6
20260505041746 53 192 1.7 1.7 0.00 0.00 0.00 81 1007.3
20260505041243 53 212 0.0 0.9 0.00 0.00 0.00 83 1007.3
20260505040740 53 191 0.9 0.9 0.00 0.00 0.00 83 1007.4
20260505040238 53 198 0.0 0.0 0.00 0.00 0.00 83 1007.0
20260505035735 53 203 0.0 0.0 0.00 0.00 0.00 82 1007.0
20260505035230 53 188 0.0 0.0 0.00 0.00 0.00 82 1006.9
20260505034728 53 204 0.0 0.0 0.00 0.00 0.00 81 1006.8
20260505034224 54 182 0.0 0.0 0.00 0.00 0.00 80 1006.7
20260505033721 54 181 0.0 0.0 0.00 0.00 0.00 80 1006.6
20260505033219 55 181 0.0 0.0 0.00 0.00 0.00 77 1006.7
20260505032717 55 182 0.0 1.7 0.00 0.00 0.00 76 1006.5
20260505032212 55 200 0.0 0.9 0.00 0.00 0.00 75 1006.5
20260505031710 55 212 0.9 1.7 0.00 0.00 0.00 77 1006.6
20260505031206 55 189 0.0 0.0 0.00 0.00 0.00 75 1006.7
20260505030703 56 186 0.0 0.0 0.00 0.00 0.00 76 1006.5
20260505030159 56 185 0.0 0.0 0.00 0.00 0.00 75 1006.8
20260505025655 56 208 0.0 0.0 0.00 0.00 0.00 74 1006.6
20260505025154 57 195 0.0 0.9 0.00 0.00 0.00 76 1006.5
20260505024651 57 183 0.9 1.7 0.00 0.00 0.00 74 1006.5
20260505024148 57 196 0.0 0.9 0.00 0.00 0.00 73 1006.5
20260505023646 58 212 1.7 2.6 0.00 0.00 0.00 72 1006.5
20260505023143 58 207 0.0 0.0 0.00 0.00 0.00 71 1006.3
20260505022640 58 209 0.0 0.9 0.00 0.00 0.00 72 1006.6
20260505022137 58 193 0.0 0.9 0.00 0.00 0.00 70 1006.5
20260505021633 58 200 0.0 0.9 0.00 0.00 0.00 70 1006.2
20260505021130 59 355 0.9 1.7 0.00 0.00 0.00 69 1006.2
20260505020626 59 184 0.0 0.9 0.00 0.00 0.00 68 1006.2
20260505020122 59 199 0.0 0.0 0.00 0.00 0.00 69 1006.3
20260505015619 59 207 0.0 0.9 0.00 0.00 0.00 67 1006.2
20260505015116 59 188 0.9 0.9 0.00 0.00 0.00 71 1006.1
20260505014613 60 208 0.0 0.9 0.00 0.00 0.00 66 1006.3
20260505014110 61 205 0.0 0.9 0.00 0.00 0.00 63 1006.2
20260505013607 61 208 0.0 0.0 0.00 0.00 0.00 66 1006.1
20260505013104 62 187 0.0 1.7 0.00 0.00 0.00 63 1006.0
20260505012602 63 219 2.6 5.2 0.00 0.00 0.00 63 1006.3
20260505012059 62 145 0.9 0.9 0.00 0.00 0.00 61 1006.3
20260505011554 62 214 0.0 2.6 0.00 0.00 0.00 64 1006.5
20260505011052 62 188 0.9 4.3 0.00 0.00 0.00 62 1006.5
20260505010547 62 235 2.6 2.6 0.00 0.00 0.00 63 1006.7
20260505010044 62 231 2.6 2.6 0.00 0.00 0.00 63 1006.5
20260505005540 62 225 1.7 2.6 0.00 0.00 0.00 65 1006.6
20260505005038 62 225 0.9 5.2 0.00 0.00 0.00 63 1006.7
20260505004535 62 220 0.9 4.3 0.00 0.00 0.00 64 1006.7
20260505004032 61 192 0.0 0.9 0.00 0.00 0.00 66 1006.6
20260505003529 61 251 4.3 6.1 0.00 0.00 0.00 65 1006.7
20260505003026 62 149 1.7 2.6 0.00 0.00 0.00 63 1006.6
20260505002527 61 200 2.6 2.6 0.00 0.00 0.00 67 1006.8
20260505002026 61 206 0.0 2.6 0.00 0.00 0.00 63 1006.6
20260505001523 61 224 0.9 2.6 0.00 0.00 0.00 66 1006.7
20260505001020 61 348 0.9 1.7 0.00 0.00 0.00 66 1006.7
20260505000517 61 188 0.9 1.7 0.00 0.00 0.00 66 1006.5
20260505000015 61 224 0.9 2.6 0.00 0.00 0.00 66 1006.3
20260504235511 61 210 0.0 2.6 0.00 0.00 0.00 66 1006.5
20260504235007 61 337 0.9 5.2 0.00 0.00 0.00 65 1006.7
20260504234505 62 185 0.9 5.2 0.00 0.00 0.00 65 1006.7
20260504234002 62 4 3.5 4.3 0.00 0.00 0.00 64 1006.6
20260504233457 61 19 0.9 5.2 0.00 0.00 0.00 66 1006.5
20260504232954 60 199 0.9 4.3 0.00 0.00 0.00 67 1006.9
20260504232451 60 203 0.9 2.6 0.00 0.00 0.00 67 1006.7
20260504231949 61 17 2.6 4.3 0.00 0.00 0.00 66 1006.8
20260504231445 62 209 0.0 2.6 0.00 0.00 0.00 64 1006.7
20260504230941 61 161 1.7 2.6 0.00 0.00 0.00 67 1006.9
20260504230438 60 169 0.0 2.6 0.00 0.00 0.00 67 1006.7
20260504225937 61 219 0.9 2.6 0.00 0.00 0.00 65 1006.8
20260504225433 62 196 0.0 1.7 0.00 0.00 0.00 67 1006.7
20260504224931 62 174 3.5 4.3 0.00 0.00 0.00 63 1006.8
20260504224427 62 184 0.9 2.6 0.00 0.00 0.00 66 1006.6
20260504223925 63 255 0.9 4.3 0.00 0.00 0.00 63 1006.7
20260504223420 63 201 0.9 4.3 0.00 0.00 0.00 62 1006.8
20260504222916 64 264 0.9 4.3 0.00 0.00 0.00 61 1006.9
20260504222413 62 200 0.0 2.6 0.00 0.00 0.00 63 1006.9
20260504221911 61 133 0.9 1.7 0.00 0.00 0.00 63 1006.9
20260504221408 61 253 0.9 0.9 0.00 0.00 0.00 64 1007.2
20260504220905 61 196 0.0 0.9 0.00 0.00 0.00 67 1007.1
20260504220401 60 173 0.9 1.7 0.00 0.00 0.00 65 1007.1
20260504215859 60 175 0.0 0.9 0.00 0.00 0.00 66 1007.1
20260504215355 60 256 3.5 6.1 0.00 0.00 0.00 65 1007.2
20260504214851 61 239 0.9 2.6 0.00 0.00 0.00 64 1007.2
20260504214348 61 209 0.0 4.3 0.00 0.00 0.00 64 1007.1
20260504213845 62 202 0.0 1.7 0.00 0.00 0.00 64 1007.2
20260504213341 63 302 1.7 5.2 0.00 0.00 0.00 62 1007.4
20260504212838 62 190 2.6 2.6 0.00 0.00 0.00 64 1007.4
20260504212334 62 277 2.6 2.6 0.00 0.00 0.00 63 1007.3
20260504211832 61 198 0.0 4.3 0.00 0.00 0.00 63 1007.4
20260504211328 61 210 0.0 0.9 0.00 0.00 0.00 65 1007.5
20260504210826 61 243 2.6 4.3 0.00 0.00 0.00 62 1007.3
20260504210322 61 215 0.0 0.9 0.00 0.00 0.00 62 1007.5
20260504205820 61 189 0.0 0.9 0.00 0.00 0.00 63 1007.5
20260504205318 60 178 0.0 0.9 0.00 0.00 0.00 63 1007.5
20260504204815 60 271 1.7 2.6 0.00 0.00 0.00 64 1007.6
20260504204313 60 229 0.9 0.9 0.00 0.00 0.00 65 1007.6
20260504203813 60 230 0.0 2.6 0.00 0.00 0.00 66 1007.4
20260504203309 60 274 0.9 1.7 0.00 0.00 0.00 67 1007.5
20260504202804 60 153 0.9 1.7 0.00 0.00 0.00 66 1007.6
20260504202304 60 206 0.0 0.0 0.00 0.00 0.00 66 1007.5
20260504201759 60 210 0.9 4.3 0.00 0.00 0.00 69 1007.5
20260504201256 59 212 0.0 1.7 0.00 0.00 0.00 68 1007.5
20260504200754 59 299 0.9 0.9 0.00 0.00 0.00 68 1007.7
20260504200249 59 211 0.9 2.6 0.00 0.00 0.00 68 1007.6
20260504195746 59 200 0.0 1.7 0.00 0.00 0.00 69 1007.6
20260504195242 59 194 0.0 0.0 0.00 0.00 0.00 68 1007.5
20260504194739 59 185 0.0 0.9 0.00 0.00 0.00 67 1007.7
20260504194235 59 188 0.0 0.0 0.00 0.00 0.00 73 1007.6
20260504193732 59 202 0.0 2.6 0.00 0.00 0.00 68 1007.7
20260504193229 60 203 0.9 0.9 0.00 0.00 0.00 70 1007.5
20260504192728 59 272 0.0 2.6 0.00 0.00 0.00 68 1007.6
20260504192225 60 272 0.0 2.6 0.00 0.00 0.00 67 1007.6
20260504191724 60 187 0.9 1.7 0.00 0.00 0.00 69 1007.5
20260504191220 60 199 0.9 0.9 0.00 0.00 0.00 68 1007.7
20260504190715 59 310 1.7 2.6 0.00 0.00 0.00 68 1007.5
20260504190212 60 152 0.9 1.7 0.00 0.00 0.00 68 1007.6
20260504185709 59 187 0.0 0.9 0.00 0.00 0.00 67 1007.5
20260504185205 60 173 0.9 1.7 0.00 0.00 0.00 67 1007.7
20260504184702 60 254 0.0 1.7 0.00 0.00 0.00 69 1007.9
20260504184157 60 282 0.9 1.7 0.00 0.00 0.00 67 1007.7
20260504183654 61 202 0.0 0.9 0.00 0.00 0.00 67 1007.7
20260504183151 61 194 0.0 0.9 0.00 0.00 0.00 64 1007.5
20260504182649 61 241 0.0 2.6 0.00 0.00 0.00 67 1007.7
20260504182146 61 203 0.0 1.7 0.00 0.00 0.00 64 1007.4
20260504181643 60 184 0.9 1.7 0.00 0.00 0.00 65 1007.4
20260504181141 61 238 1.7 2.6 0.00 0.00 0.00 63 1007.4
20260504180640 61 227 0.9 4.3 0.00 0.00 0.00 64 1007.5
20260504180138 62 202 0.9 2.6 0.00 0.00 0.00 64 1007.4
20260504175635 61 114 1.7 2.6 0.00 0.00 0.00 62 1007.3
20260504175131 60 190 0.0 0.9 0.00 0.00 0.00 65 1007.2
20260504174630 59 167 0.0 0.9 0.00 0.00 0.00 68 1007.2
20260504174126 60 249 1.7 2.6 0.00 0.00 0.00 68 1007.2
20260504173624 60 216 0.0 1.7 0.00 0.00 0.00 67 1007.2
20260504173121 59 190 0.0 1.7 0.00 0.00 0.00 71 1007.2
20260504172617 60 189 0.0 1.7 0.00 0.00 0.00 69 1007.0